User: anonymous   Login
Location: Unspecified
(0.0000°N, 0.0000°E)
Time: 18:56:35
(UTC+00:00)
Language:

APRIZESAT 2 (LATINSAT D) - Orbit

View from above orbital plane
View from above orbital plane
View from above satellite
View from above satellite

Ground track
Ground track

The orbit data is extracted from the following two-line orbital elements,

1 28366U 04025A   19340.68391901 -.00000035 +00000-0 +30965-5 0  9997
2 28366 098.2840 234.1854 0106710 227.7574 131.4524 14.36689265809179
Epoch (UTC): 06 December 2019 16:24:50
Eccentricity: 0.0106710
inclination: 98.2840°
perigee height: 693 km
apogee height: 846 km
right ascension of ascending node: 234.1854°
argument of perigee: 227.7574°
revolutions per day: 14.36689265
mean anomaly at epoch: 131.4524°
orbit number at epoch: 80917

The dashed part of the orbit path shows where the satellite is in the earth's shadow,  

DLR